Regional Weather Roundup
Issued by NWS

Home | Current Version | Previous Version | Graphics & Text | Print | Product List | Glossary On
Versions: 1 2 3 4 5 6 7 8 9 10 11 12 13 14 15 16 17 18 19 20 21 22 23 24 25 26 27 28 29 30 31 32 33 34 35 36 37 38 39 40 41 42 43 44 45 46 47 48 49 50
000
ASUS43 KTOP 150608
RWRKS

WEATHER ROUNDUP FOR KANSAS
NATIONAL WEATHER SERVICE GOODLAND KS
100 AM CDT MON SEP 15 2014

NOTE:  "FAIR" INDICATES FEW OR NO CLOUDS BELOW 12,000 FEET WITH NO
SIGNIFICANT WEATHER AND/OR OBSTRUCTIONS TO VISIBILITY.

KSZ001>006-013>018-027>032-041>047-150700-
NORTHWEST KANSAS

CITY           SKY/WX    TMP DP  RH WIND       PRES   REMARKS
GOODLAND       MOCLDY    58  55  90 CALM      30.05R
6HR MIN TEMP:  57; 6HR MAX TEMP:  74;

HILL CITY      PTCLDY    59  56  89 N7        29.98R
6HR MIN TEMP:  58; 6HR MAX TEMP:  80;

RUSSELL        CLEAR     67  61  81 S15       29.93F
6HR MIN TEMP:  67; 6HR MAX TEMP:  79;

$$

KSZ061>065-074>080-084>089-150700-
SOUTHWEST KANSAS

CITY           SKY/WX    TMP DP  RH WIND       PRES   REMARKS
DODGE CITY     PTCLDY    67  59  75 S18       30.01S
6HR MIN TEMP:  67; 6HR MAX TEMP:  84;

ELKHART          N/A    N/A N/A N/A MISG        N/A
GARDEN CITY    CLEAR     66  60  81 SW8       30.01R
6HR MIN TEMP:  66; 6HR MAX TEMP:  83;

GREAT BEND     PTCLDY    66  59  77 S16G25    29.97F
LIBERAL        CLEAR     64  57  77 S12       30.06F
PRATT          PTCLDY    64  59  82 S13       30.04S
$$

KSZ066>073-081>083-090>101-150700-
SOUTHEAST KANSAS

CITY           SKY/WX    TMP DP  RH WIND       PRES   REMARKS
CHANUTE        PTCLDY    66  61  84 S10       30.08F
6HR MIN TEMP:  65; 6HR MAX TEMP:  73;

COFFEYVILLE    MOCLDY    67  63  87 S7        30.09F
6HR MIN TEMP:  67; 6HR MAX TEMP:  74;

HUTCHINSON     PTCLDY    68  59  73 S15       30.01S
6HR MIN TEMP:  68; 6HR MAX TEMP:  80;

MEDICINE LODGE   N/A     67  61  81 S8        30.04S
NEWTON         PTCLDY    66  55  68 S15G21    30.04F
PARSONS        MOCLDY    67  61  81 S7        30.10F
6HR MIN TEMP:  67; 6HR MAX TEMP:  74;

WICHITA INTL   MOCLDY    68  60  75 S15       30.03F
6HR MIN TEMP:  68; 6HR MAX TEMP:  80;

WICHITA JABRA  PTCLDY    68  60  75 S17G25    30.03F
6HR MIN TEMP:  68; 6HR MAX TEMP:  77;

WICHITA MCCONL PTCLDY    67  64  87 S15       30.04F
WINFIELD       MOCLDY    67  62  84 S10       30.08F
6HR MIN TEMP:  67; 6HR MAX TEMP:  76;

$$

KSZ007>012-019>026-033>040-048>060-102>105-150700-
NORTHEAST KANSAS

CITY           SKY/WX    TMP DP  RH WIND       PRES   REMARKS
CONCORDIA      CLEAR     59  59 100 E3        29.97F
6HR MIN TEMP:  59; 6HR MAX TEMP:  71;

EMPORIA        CLEAR     64  61  90 S12       30.04F
6HR MIN TEMP:  64; 6HR MAX TEMP:  71;

LAWRENCE       CLEAR     61  57  87 E7        30.06F
6HR MIN TEMP:  60; 6HR MAX TEMP:  70;

MANHATTAN      CLEAR     68  61  78 S10       30.00S
6HR MIN TEMP:  67; 6HR MAX TEMP:  72;

OLATHE IND     CLEAR     62  57  83 SE6       30.08F
6HR MIN TEMP:  60; 6HR MAX TEMP:  69;

OLATHE EXE     CLEAR     60  57  89 SE6       30.07F
6HR MIN TEMP:  60; 6HR MAX TEMP:  68;

SALINA         CLEAR     70  60  70 S17       29.98R
6HR MIN TEMP:  69; 6HR MAX TEMP:  76;

TOPEKA BILLARD CLEAR     64  59  83 E5        30.04F
6HR MIN TEMP:  64; 6HR MAX TEMP:  72;

TOPEKA FORBES  CLEAR     65  59  81 S8        30.03F
6HR MIN TEMP:  64; 6HR MAX TEMP:  71;

$$



USA.gov is the U.S. government's official web portal to all federal, state and local government web resources and services.